When you browse on this site, cookies collect data to enhance your experience and personalize the content and advertising you see.
Visit our Privacy Policy to learn more. By continuing to use the site, you agree to this use of cookies and data.
  • In Hungary
  • List of Countries
  • For 7 days
  • Water Temperature
  • Weather Map
  • News
  • Weather Widgets
  • user-avatar
    Login

    Hourly Weather Soledar

    Today, 21 November, Thursday

    Time Temperature Precipitation Wind Pressure Humidity
    00:00 -6°C° 0 mm 8 mps 767 mmHg 69%
    01:00 -7°C° 0 mm 8 mps 768 mmHg 67%
    02:00 -7°C° 0 mm 8 mps 768 mmHg 64%
    03:00 -8°C° 0 mm 7 mps 769 mmHg 65%
    04:00 -9°C° 0 mm 7 mps 769 mmHg 63%
    05:00 -11°C° 0 mm 8 mps 769 mmHg 61%
    06:00 -11°C° 0 mm 8 mps 769 mmHg 59%
    07:00 -12°C° 0 mm 8 mps 770 mmHg 56%
    08:00 -12°C° 0 mm 8 mps 770 mmHg 53%
    09:00 -12°C° 0 mm 8 mps 770 mmHg 49%
    10:00 -11°C° 0 mm 8 mps 770 mmHg 45%
    11:00 -11°C° 0 mm 8 mps 770 mmHg 41%
    12:00 -10°C° 0 mm 8 mps 770 mmHg 37%
    13:00 -10°C° 0 mm 8 mps 770 mmHg 34%
    14:00 -8°C° 0 mm 8 mps 770 mmHg 31%
    15:00 -8°C° 0 mm 8 mps 770 mmHg 28%
    16:00 -10°C° 0 mm 8 mps 770 mmHg 28%
    17:00 -10°C° 0 mm 8 mps 770 mmHg 27%
    18:00 -11°C° 0 mm 7 mps 770 mmHg 27%
    19:00 -11°C° 0 mm 7 mps 770 mmHg 28%
    20:00 -12°C° 0 mm 8 mps 771 mmHg 30%
    21:00 -12°C° 0 mm 8 mps 771 mmHg 32%
    22:00 -12°C° 0 mm 8 mps 771 mmHg 35%
    23:00 -12°C° 0 mm 8 mps 771 mmHg 37%

    Tomorrow, 22 November, Friday

    Time Temperature Precipitation Wind Pressure Humidity
    00:00 -13°C° 0 mm 7 mps 770 mmHg 40%
    01:00 -13°C° 0 mm 7 mps 770 mmHg 44%
    02:00 -13°C° 0 mm 7 mps 771 mmHg 47%
    03:00 -13°C° 0 mm 7 mps 771 mmHg 51%
    04:00 -13°C° 0 mm 7 mps 770 mmHg 52%
    05:00 -13°C° 0 mm 7 mps 770 mmHg 53%
    06:00 -13°C° 0 mm 7 mps 770 mmHg 54%
    07:00 -13°C° 0 mm 8 mps 770 mmHg 53%
    08:00 -13°C° 0 mm 8 mps 770 mmHg 52%
    09:00 -13°C° 0 mm 8 mps 770 mmHg 51%
    10:00 -11°C° 0 mm 8 mps 770 mmHg 46%
    11:00 -10°C° 0 mm 8 mps 770 mmHg 42%
    12:00 -8°C° 0 mm 8 mps 769 mmHg 37%
    13:00 -7°C° 0 mm 8 mps 769 mmHg 35%
    14:00 -7°C° 0 mm 8 mps 769 mmHg 34%
    15:00 -6°C° 0 mm 8 mps 769 mmHg 32%
    16:00 -7°C° 0 mm 7 mps 769 mmHg 34%
    17:00 -8°C° 0 mm 7 mps 768 mmHg 35%
    18:00 -9°C° 0 mm 7 mps 768 mmHg 37%
    19:00 -9°C° 0 mm 7 mps 768 mmHg 38%
    20:00 -9°C° 0 mm 7 mps 768 mmHg 39%
    21:00 -9°C° 0 mm 7 mps 768 mmHg 39%
    22:00 -11°C° 0 mm 7 mps 768 mmHg 41%
    23:00 -11°C° 0 mm 7 mps 768 mmHg 43%

    Day after tomorrow, 23 November, Saturday

    Time Temperature Precipitation Wind Pressure Humidity
    00:00 -12°C° 0 mm 7 mps 768 mmHg 46%
    01:00 -11°C° 0 mm 6 mps 768 mmHg 47%
    02:00 -11°C° 0 mm 6 mps 768 mmHg 49%
    03:00 -11°C° 0 mm 6 mps 768 mmHg 50%
    04:00 -11°C° 0 mm 6 mps 768 mmHg 51%
    05:00 -11°C° 0 mm 6 mps 768 mmHg 51%
    06:00 -11°C° 0 mm 6 mps 768 mmHg 51%
    07:00 -12°C° 0 mm 7 mps 768 mmHg 49%
    08:00 -12°C° 0 mm 7 mps 768 mmHg 47%
    09:00 -12°C° 0 mm 7 mps 768 mmHg 46%
    10:00 -9°C° 0 mm 7 mps 767 mmHg 40%
    11:00 -7°C° 0 mm 7 mps 767 mmHg 35%
    12:00 -6°C° 0 mm 7 mps 767 mmHg 30%
    13:00 -4°C° 0 mm 7 mps 767 mmHg 28%
    14:00 -4°C° 0 mm 7 mps 766 mmHg 27%
    15:00 -3°C° 0 mm 7 mps 766 mmHg 26%
    16:00 -4°C° 0 mm 6 mps 766 mmHg 27%
    17:00 -5°C° 0 mm 6 mps 766 mmHg 29%
    18:00 -6°C° 0 mm 6 mps 766 mmHg 30%
    19:00 -6°C° 0 mm 6 mps 766 mmHg 32%
    20:00 -8°C° 0 mm 6 mps 766 mmHg 34%
    21:00 -8°C° 0 mm 6 mps 766 mmHg 35%
    22:00 -8°C° 0 mm 6 mps 766 mmHg 37%
    23:00 -8°C° 0 mm 6 mps 766 mmHg 39%

    24 November, Sunday

    Time Temperature Precipitation Wind Pressure Humidity
    00:00 -8°C° 0 mm 5 mps 765 mmHg 40%
    01:00 -8°C° 0 mm 5 mps 765 mmHg 41%
    02:00 -8°C° 0 mm 5 mps 765 mmHg 42%
    03:00 -8°C° 0 mm 5 mps 765 mmHg 43%
    04:00 -9°C° 0 mm 6 mps 765 mmHg 44%
    05:00 -9°C° 0 mm 6 mps 765 mmHg 45%
    06:00 -10°C° 0 mm 6 mps 765 mmHg 46%
    07:00 -9°C° 0 mm 6 mps 765 mmHg 47%
    08:00 -9°C° 0 mm 6 mps 765 mmHg 47%
    09:00 -9°C° 0 mm 6 mps 765 mmHg 47%
    10:00 -6°C° 0 mm 6 mps 764 mmHg 44%
    11:00 -5°C° 0 mm 6 mps 764 mmHg 41%
    12:00 -3°C° 0 mm 7 mps 764 mmHg 38%
    13:00 -3°C° 0 mm 7 mps 764 mmHg 36%
    14:00 -2°C° 0 mm 7 mps 763 mmHg 34%
    15:00 -2°C° 0 mm 7 mps 763 mmHg 32%
    16:00 -3°C° 0 mm 6 mps 763 mmHg 35%
    17:00 -4°C° 0 mm 6 mps 763 mmHg 38%
    18:00 -5°C° 0 mm 6 mps 763 mmHg 41%
    19:00 -5°C° 0 mm 6 mps 763 mmHg 43%
    20:00 -5°C° 0 mm 6 mps 763 mmHg 46%
    21:00 -6°C° 0 mm 6 mps 763 mmHg 49%
    22:00 -6°C° 0 mm 6 mps 763 mmHg 51%
    23:00 -6°C° 0 mm 5 mps 763 mmHg 52%

    25 November, Monday

    Time Temperature Precipitation Wind Pressure Humidity
    00:00 -6°C° 0 mm 5 mps 763 mmHg 54%
    01:00 -6°C° 0 mm 5 mps 763 mmHg 57%
    02:00 -7°C° 0 mm 5 mps 763 mmHg 59%
    03:00 -7°C° 0 mm 5 mps 762 mmHg 61%
    04:00 -7°C° 0 mm 5 mps 762 mmHg 64%
    05:00 -7°C° 0 mm 5 mps 762 mmHg 67%
    06:00 -8°C° 0 mm 6 mps 762 mmHg 71%
    07:00 -8°C° 0 mm 6 mps 762 mmHg 72%
    08:00 -8°C° 0 mm 6 mps 762 mmHg 73%
    09:00 -8°C° 0 mm 6 mps 762 mmHg 74%
    10:00 -5°C° 0 mm 6 mps 762 mmHg 69%
    11:00 -4°C° 0 mm 6 mps 762 mmHg 65%
    12:00 -2°C° 0 mm 6 mps 762 mmHg 61%
    13:00 -2°C° 0 mm 6 mps 761 mmHg 59%
    14:00 -1°C° 0 mm 6 mps 761 mmHg 58%
    15:00 -1°C° 0 mm 6 mps 760 mmHg 57%
    16:00 -2°C° 0 mm 6 mps 761 mmHg 56%
    17:00 -2°C° 0 mm 5 mps 761 mmHg 56%
    18:00 -4°C° 0 mm 5 mps 761 mmHg 56%
    19:00 -4°C° 0 mm 5 mps 760 mmHg 53%
    20:00 -5°C° 0 mm 5 mps 760 mmHg 50%
    21:00 -5°C° 0 mm 5 mps 760 mmHg 47%
    22:00 -5°C° 0 mm 5 mps 760 mmHg 48%
    23:00 -6°C° 0 mm 5 mps 760 mmHg 48%

    26 November, Tuesday

    Time Temperature Precipitation Wind Pressure Humidity
    00:00 -6°C° 0 mm 5 mps 760 mmHg 48%
    01:00 -6°C° 0 mm 5 mps 760 mmHg 49%
    02:00 -7°C° 0 mm 5 mps 759 mmHg 50%
    03:00 -7°C° 0 mm 5 mps 759 mmHg 52%
    04:00 -7°C° 0 mm 5 mps 759 mmHg 53%
    05:00 -7°C° 0 mm 5 mps 759 mmHg 53%
    06:00 -7°C° 0 mm 5 mps 759 mmHg 54%
    07:00 -7°C° 0 mm 5 mps 759 mmHg 54%
    08:00 -7°C° 0 mm 5 mps 758 mmHg 53%
    09:00 -7°C° 0 mm 5 mps 758 mmHg 53%
    10:00 -5°C° 0 mm 5 mps 758 mmHg 52%
    11:00 -4°C° 0 mm 5 mps 758 mmHg 52%
    12:00 -3°C° 0 mm 6 mps 758 mmHg 52%
    13:00 -2°C° 0 mm 6 mps 757 mmHg 53%
    14:00 -2°C° 0 mm 6 mps 757 mmHg 55%
    15:00 -1°C° 0 mm 6 mps 756 mmHg 56%
    16:00 -1°C° 0 mm 5 mps 756 mmHg 62%
    17:00 -2°C° 0 mm 5 mps 757 mmHg 68%
    18:00 -3°C° 0 mm 4 mps 757 mmHg 73%
    19:00 -2°C° 0 mm 4 mps 757 mmHg 74%
    20:00 -2°C° 0 mm 4 mps 757 mmHg 75%
    21:00 -2°C° 0 mm 5 mps 757 mmHg 75%
    22:00 -2°C° 0 mm 5 mps 757 mmHg 75%
    23:00 -2°C° 0 mm 4 mps 757 mmHg 75%
    Show more